Location: Cluj-Napoca
(46.7712°N, 23.6236°E)
Time: 22:11:00
(UTC+02:00)

First-Move - Pass Details

Date: 02 December 2021
Orbit: 574 x 665 km, 97.6° (Epoch: 28 January)

Event Time Altitude Azimuth Distance (km) Brightness Sun altitude
Rises 05:11:26 0° 11° (N) 2,994 ? -26.5°
Reaches altitude 10° 05:13:39 10° 9° (N) 2,086 ? -26.1°
Enters shadow 05:15:03 20° 7° (N) 1,535 ? -25.9°
